Other Surface Observations
Issued by NWS Charleston, SC

Home | Current Version | Previous Version | Text Only | Print | Product List | Glossary On
Versions: 1 2 3 4 5 6 7 8 9 10 11 12 13 14 15 16 17 18 19 20 21 22 23 24 25 26 27 28 29 30 31 32 33 34 35 36 37 38 39 40 41 42 43 44 45 46 47 48 49 50
551
SXUS52 KCHS 300527
OSOCHS

MARINE OBSERVATIONS
NATIONAL WEATHER SERVICE CHARLESTON SC
100 AM EDT TUE MAY 30 2017

...DOWNTOWN CHARLESTON AND HARBOR...

CITY           SKY/WX    TMP DP  RH WIND       PRES   REMARKS
WATERFRONT PRK   N/A     80  73  79 NW6       30.02R

...LAKE MOULTRIE...

CITY           SKY/WX    TMP DP  RH WIND       PRES   REMARKS
PINOPOLIS        N/A     75  70  83 E5        29.97F

...LAKE AND SUPPLEMENTAL COASTAL OBSERVATIONS...

STATION/POSITION TIME  TEMP    WIND        PRES    WAVE   SWELL
                       AIR SEA DIR/SP/G            HT/PER HT/PER/DIR
                 (UTC) (F)     (DEG/KT/KT) (MB)    (FT/S) (FT/S/D)
FORT PULASKI     0500   80     220/  8/ 12 1017.6
SAPELO ISLAND    0500   80     190/  6     1017.0
WINYAH BAY       0430   77      60/  1     1017.0S
LAKE MURRAY      0520   73     220/  3/  5 1016.6F
ACE BASIN NERRS  0445   78        CALM     1017.0S


...C-MAN AND BUOY OBSERVATIONS...

STATION/POSITION TIME  TEMP    WIND        PRES    WAVE   SWELL
                       AIR SEA DIR/SP/G            HT/PER HT/PER/DIR
                 (UTC) (F)     (DEG/KT/KT) (MB)    (FT/S) (FT/S/D)
BUOY 41004       0510   78 77  200/  8/ 10 1016.9
BUOY 41008       0450   80 78  180/ 16/ 17 1017.0R   2/ 3   2/ 90/ 9
FOLLY BEACH CMAN 0500   78     270/  3/  5 1018.0R
CAPERS NS BUOY   0508   82 79  270/ 10/ 16 1017.1R
FRIPP NS BUOY    0508   80 79  220/ 10/ 14 1016.9R
5E ST. MARYS GA  0500      79                N/A     2/ 3


STATION/POSITION TIME  TEMP    WIND        PRES    WAVE   SWELL
                       AIR SEA DIR/SP/G            HT/PER HT/PER/DIR
                 (UTC) (F)     (DEG/KT/KT) (MB)    (FT/S) (FT/S/D)
FRYING PAN BUOY  0510   76 76  220/  8/ 10 1016.8
BUOY 41025       0450   77 76  150/  4/  6 1017.4R   2/10   2/10
CAPE LOOKOUT NC  0500   76     210/  6/  7 1017.1R
BUOY 41002       0450   77 78  210/ 10/ 10 1018.4F   3/ 6   3/230/ 6
BUOY 41010       0510   81 81  200/  8/ 10 1018.6
ST AUGUSTINE FL  0500   77 76  210/  6/  7 1019.3S

$$




USA.gov is the U.S. government's official web portal to all federal, state and local government web resources and services.